contact:dominique.lefevre@mio.osupytheas.fr, maurice.libes@osupytheas.fr, didier.mallarino@osupytheas.fr
Project:EMSO http://www.emso-fr.org/EMSO-France
Depth: 2436.0 m
Title:EMSO Ligure Ouest : Data MII capteur AQUADOPP
Date,Latitude,Longitude,X_East,Y_North,Z_Up,Amplitude_X,Amplitude_Y,Amplitude_Z,Batterie,SoundSpeed,Heading,Pitch,Roll,Pressure,TIS,Speed,Direction
, degrees North, degrees East, m.s-1, m.s-1,m.s-1, 1, 1, 1, Volt, m.s-1, degree, degree, degree, dbar, degree_C, m.s-1, degree
2021-06-12T00:04:03,42.805,6.029,0.029,-0.041,0.0,102.0,104.0,102.0,13.4,1505.2,326.9,-0.7,1.8,2470.626,13.28,0.05,144.7
2021-06-12T00:07:03,42.805,6.029,0.008,-0.019,0.011,103.0,103.0,101.0,13.4,1505.2,330.1,-0.8,1.8,2470.571,13.28,0.02,157.2
2021-06-12T00:10:03,42.805,6.029,0.017,-0.011,-0.006,103.0,105.0,101.0,13.4,1505.2,327.7,-0.8,1.8,2470.6,13.28,0.02,122.9
2021-06-12T00:13:03,42.805,6.029,0.006,-0.023,0.009,103.0,105.0,102.0,13.4,1505.2,329.5,-0.8,1.8,2470.577,13.28,0.023,165.4
2021-06-12T00:16:03,42.805,6.029,0.026,-0.026,0.0,104.0,103.0,102.0,13.4,1505.2,326.7,-0.7,1.8,2470.56,13.28,0.036,135.0
2021-06-12T00:19:03,42.805,6.029,0.01,-0.031,-0.017,103.0,104.0,101.0,13.4,1505.2,326.6,-0.8,1.8,2470.558,13.28,0.032,162.1
2021-06-12T00:22:03,42.805,6.029,0.016,-0.033,-0.036,102.0,104.0,102.0,13.4,1505.2,328.4,-0.7,1.8,2470.559,13.28,0.036,154.1
2021-06-12T00:25:03,42.805,6.029,0.002,-0.031,-0.017,103.0,103.0,102.0,13.3,1505.2,329.8,-0.7,1.8,2470.583,13.28,0.031,176.3
2021-06-12T00:28:03,42.805,6.029,0.027,-0.014,0.015,104.0,104.0,102.0,13.3,1505.2,326.7,-0.8,1.8,2470.546,13.28,0.03,117.4
2021-06-12T00:31:03,42.805,6.029,0.008,0.0,0.0,103.0,103.0,102.0,13.4,1505.2,324.9,-0.8,1.9,2470.545,13.28,0.008,90.0
2021-06-12T00:34:03,42.805,6.029,0.027,-0.009,-0.011,104.0,104.0,102.0,13.4,1505.2,326.3,-0.8,1.8,2470.542,13.28,0.028,108.4
2021-06-12T00:37:03,42.805,6.029,-0.007,-0.005,-0.012,101.0,103.0,102.0,13.4,1505.2,325.2,-0.7,1.8,2470.546,13.28,0.008,234.5
2021-06-12T00:40:03,42.805,6.029,-0.003,-0.013,-0.016,104.0,104.0,102.0,13.4,1505.2,328.5,-0.7,1.8,2470.544,13.28,0.013,193.0
2021-06-12T00:43:03,42.805,6.029,0.011,-0.007,0.004,104.0,102.0,102.0,13.4,1505.2,328.9,-0.8,1.8,2470.508,13.28,0.013,122.5
2021-06-12T00:46:03,42.805,6.029,0.023,-0.035,-0.021,104.0,102.0,102.0,13.3,1505.2,326.8,-0.8,1.8,2470.543,13.28,0.041,146.7
2021-06-12T00:49:03,42.805,6.029,0.009,-0.015,-0.004,105.0,102.0,101.0,13.3,1505.2,329.9,-0.7,1.8,2470.517,13.28,0.017,149.0
2021-06-12T00:52:03,42.805,6.029,0.011,-0.022,-0.012,104.0,103.0,102.0,13.3,1505.2,327.0,-0.7,1.8,2470.485,13.28,0.024,153.4
2021-06-12T00:55:03,42.805,6.029,0.026,-0.01,-0.008,104.0,103.0,101.0,13.4,1505.2,329.7,-0.8,1.8,2470.501,13.28,0.027,111.0
2021-06-12T00:58:03,42.805,6.029,0.024,-0.012,-0.012,103.0,103.0,102.0,13.4,1505.2,328.4,-0.7,1.8,2470.505,13.28,0.026,116.6
2021-06-12T01:04:03,42.805,6.029,0.005,-0.017,-0.015,104.0,103.0,102.0,13.4,1505.2,324.6,-0.8,1.8,2470.5,13.28,0.017,163.6
2021-06-12T01:07:03,42.805,6.029,0.019,-0.022,-0.001,104.0,104.0,102.0,13.3,1505.2,326.8,-0.7,1.8,2470.544,13.28,0.029,139.2
2021-06-12T01:10:03,42.805,6.029,0.03,-0.011,0.019,102.0,104.0,102.0,13.3,1505.2,328.8,-0.7,1.8,2470.517,13.28,0.031,110.1
2021-06-12T01:13:03,42.805,6.029,0.013,0.016,0.009,103.0,103.0,102.0,13.3,1505.2,325.0,-0.7,1.8,2470.524,13.28,0.02,39.1
2021-06-12T01:16:03,42.805,6.029,0.017,-0.023,-0.006,104.0,103.0,102.0,13.4,1505.2,327.6,-0.8,1.8,2470.521,13.28,0.028,143.5
2021-06-12T01:19:03,42.805,6.029,0.027,-0.011,-0.003,105.0,104.0,101.0,13.4,1505.2,325.5,-0.7,1.8,2470.55,13.28,0.029,112.2
2021-06-12T01:22:03,42.805,6.029,0.017,-0.001,0.0,104.0,104.0,102.0,13.4,1505.2,329.5,-0.8,1.8,2470.53,13.28,0.017,93.4
2021-06-12T01:25:03,42.805,6.029,0.01,-0.024,-0.011,104.0,104.0,102.0,13.4,1505.2,327.5,-0.8,1.9,2470.506,13.28,0.026,157.4
2021-06-12T01:28:03,42.805,6.029,0.013,-0.023,-0.025,103.0,104.0,104.0,13.4,1505.2,328.7,-0.7,1.8,2470.506,13.28,0.026,150.5
2021-06-12T01:31:03,42.805,6.029,0.01,-0.005,0.0,104.0,105.0,101.0,13.3,1505.2,327.7,-0.8,1.8,2470.53,13.28,0.011,116.6
2021-06-12T01:34:03,42.805,6.029,0.003,-0.006,-0.003,104.0,104.0,101.0,13.3,1505.2,325.7,-0.8,1.8,2470.508,13.28,0.006,153.4
2021-06-12T01:37:03,42.805,6.029,0.013,-0.01,-0.031,103.0,104.0,102.0,13.4,1505.2,329.4,-0.8,1.8,2470.496,13.28,0.016,127.6
2021-06-12T01:40:03,42.805,6.029,0.017,-0.005,-0.011,105.0,103.0,101.0,13.4,1505.2,328.8,-0.7,1.9,2470.504,13.28,0.017,106.4
2021-06-12T01:43:03,42.805,6.029,0.034,-0.017,-0.015,104.0,104.0,101.0,13.4,1505.2,329.3,-0.8,1.8,2470.501,13.28,0.038,116.6
2021-06-12T01:46:03,42.805,6.029,0.019,-0.031,-0.041,104.0,104.0,102.0,13.3,1505.2,324.5,-0.7,1.8,2470.46,13.28,0.036,148.5
2021-06-12T01:49:03,42.805,6.029,0.013,-0.005,0.0,105.0,104.0,102.0,13.3,1505.2,326.2,-0.8,1.8,2470.533,13.28,0.013,111.0
2021-06-12T01:52:03,42.805,6.029,0.027,-0.018,-0.007,104.0,105.0,102.0,13.4,1505.2,329.0,-0.8,1.8,2470.522,13.28,0.032,123.7
2021-06-12T01:55:03,42.805,6.029,0.022,-0.009,0.006,103.0,104.0,100.0,13.4,1505.2,325.5,-0.8,1.8,2470.498,13.28,0.023,112.2
2021-06-12T01:58:03,42.805,6.029,0.001,-0.007,0.022,103.0,106.0,102.0,13.3,1505.2,329.6,-0.7,1.8,2470.512,13.28,0.007,171.9
2021-06-12T02:04:03,42.805,6.029,0.021,-0.001,0.015,104.0,103.0,101.0,13.4,1505.2,327.2,-0.8,1.8,2470.511,13.28,0.021,92.7
2021-06-12T02:07:03,42.805,6.029,0.005,-0.017,0.008,102.0,105.0,102.0,13.4,1505.2,327.0,-0.8,1.8,2470.524,13.28,0.017,163.6
2021-06-12T02:10:03,42.805,6.029,-0.006,-0.01,-0.025,104.0,103.0,101.0,13.4,1505.2,328.6,-0.7,1.8,2470.5,13.28,0.011,211.0
2021-06-12T02:13:03,42.805,6.029,0.037,-0.04,-0.014,103.0,105.0,101.0,13.3,1505.2,326.1,-0.8,1.8,2470.503,13.28,0.054,137.2
2021-06-12T02:16:03,42.805,6.029,0.022,-0.005,0.024,103.0,106.0,102.0,13.4,1505.2,329.7,-0.8,1.8,2470.545,13.28,0.022,102.8
2021-06-12T02:19:03,42.805,6.029,0.025,-0.014,0.002,102.0,103.0,102.0,13.3,1505.2,329.5,-0.7,1.8,2470.514,13.28,0.028,119.3
2021-06-12T02:22:03,42.805,6.029,0.016,0.001,-0.015,102.0,105.0,102.0,13.4,1505.2,327.7,-0.8,1.8,2470.514,13.28,0.016,86.4
2021-06-12T02:25:03,42.805,6.029,0.038,-0.007,0.003,103.0,105.0,102.0,13.3,1505.2,326.3,-0.8,1.8,2470.543,13.28,0.038,100.4
2021-06-12T02:28:03,42.805,6.029,0.023,-0.014,0.025,104.0,104.0,101.0,13.3,1505.2,329.0,-0.8,1.8,2470.514,13.28,0.026,121.3
2021-06-12T02:31:03,42.805,6.029,0.02,-0.005,0.013,103.0,104.0,100.0,13.3,1505.2,327.8,-0.8,1.8,2470.532,13.28,0.02,104.0
2021-06-12T02:34:03,42.805,6.029,0.015,-0.017,0.035,105.0,103.0,101.0,13.4,1505.2,324.9,-0.7,1.8,2470.496,13.28,0.022,138.6
2021-06-12T02:37:03,42.805,6.029,0.006,-0.007,-0.02,103.0,103.0,101.0,13.3,1505.2,326.8,-0.8,1.8,2470.498,13.28,0.009,139.4
2021-06-12T02:40:03,42.805,6.029,0.017,-0.019,-0.036,104.0,104.0,101.0,13.4,1505.2,329.6,-0.7,1.8,2470.471,13.28,0.025,138.2
2021-06-12T02:43:03,42.805,6.029,0.012,-0.023,0.007,104.0,102.0,101.0,13.3,1505.2,324.9,-0.8,1.8,2470.504,13.28,0.025,152.4
2021-06-12T02:46:03,42.805,6.029,0.021,-0.009,-0.001,103.0,106.0,102.0,13.4,1505.2,327.2,-0.8,1.8,2470.518,13.28,0.022,113.2
2021-06-12T02:49:03,42.805,6.029,0.01,-0.015,0.0,103.0,104.0,101.0,13.4,1505.2,328.7,-0.7,1.8,2470.484,13.28,0.018,146.3
2021-06-12T02:52:03,42.805,6.029,0.024,-0.022,0.025,105.0,102.0,102.0,13.4,1505.2,325.0,-0.7,1.8,2470.483,13.28,0.032,132.5
2021-06-12T02:55:03,42.805,6.029,0.02,-0.006,0.016,103.0,103.0,102.0,13.4,1505.2,327.1,-0.8,1.9,2470.445,13.28,0.02,106.7
2021-06-12T02:58:03,42.805,6.029,0.0,-0.018,-0.003,103.0,104.0,103.0,13.3,1505.2,329.6,-0.7,1.8,2470.501,13.28,0.018,180.0
2021-06-12T03:04:03,42.805,6.029,0.019,-0.023,-0.02,103.0,104.0,101.0,13.4,1505.2,324.5,-0.7,1.9,2470.541,13.28,0.029,140.4
2021-06-12T03:07:03,42.805,6.029,0.032,-0.024,-0.017,104.0,103.0,102.0,13.4,1505.2,324.6,-0.8,1.8,2470.486,13.28,0.04,126.9
2021-06-12T03:10:03,42.805,6.029,0.026,-0.014,0.015,104.0,104.0,101.0,13.4,1505.2,326.2,-0.7,1.8,2470.516,13.28,0.029,118.3
2021-06-12T03:13:03,42.805,6.029,0.006,-0.007,-0.01,104.0,105.0,102.0,13.3,1505.2,326.5,-0.8,1.8,2470.508,13.28,0.009,139.4
2021-06-12T03:16:03,42.805,6.029,0.012,-0.016,-0.025,102.0,104.0,102.0,13.4,1505.2,328.9,-0.8,1.8,2470.481,13.28,0.02,143.1
2021-06-12T03:19:03,42.805,6.029,0.007,-0.012,0.001,103.0,103.0,101.0,13.3,1505.2,325.2,-0.7,1.8,2470.503,13.28,0.013,149.7
2021-06-12T03:22:03,42.805,6.029,0.023,-0.028,0.008,104.0,104.0,100.0,13.4,1505.2,330.1,-0.7,1.8,2470.491,13.28,0.036,140.6
2021-06-12T03:25:03,42.805,6.029,0.009,-0.001,0.011,103.0,104.0,102.0,13.4,1505.2,326.4,-0.7,1.8,2470.508,13.28,0.009,96.3
2021-06-12T03:28:03,42.805,6.029,0.036,-0.009,0.027,104.0,103.0,102.0,13.4,1505.2,325.0,-0.7,1.8,2470.491,13.28,0.037,104.0
2021-06-12T03:31:03,42.805,6.029,0.015,-0.013,0.014,104.0,103.0,101.0,13.4,1505.2,327.3,-0.7,1.8,2470.501,13.28,0.019,130.9
2021-06-12T03:34:03,42.805,6.029,0.025,-0.001,0.004,102.0,105.0,103.0,13.4,1505.2,329.9,-0.8,1.8,2470.488,13.28,0.025,92.3
2021-06-12T03:37:03,42.805,6.029,0.02,-0.015,-0.019,104.0,104.0,101.0,13.4,1505.2,326.5,-0.8,1.8,2470.478,13.28,0.025,126.9
2021-06-12T03:40:03,42.805,6.029,0.004,-0.014,0.008,103.0,106.0,101.0,13.4,1505.2,324.6,-0.8,1.8,2470.526,13.28,0.014,164.1
2021-06-12T03:43:03,42.805,6.029,0.015,0.003,0.003,105.0,102.0,101.0,13.4,1505.2,327.6,-0.8,1.8,2470.467,13.28,0.015,78.7
2021-06-12T03:46:03,42.805,6.029,0.022,-0.009,-0.009,103.0,103.0,102.0,13.4,1505.2,326.0,-0.7,1.8,2470.48,13.28,0.023,112.2
2021-06-12T03:49:03,42.805,6.029,0.037,-0.014,0.033,104.0,103.0,102.0,13.4,1505.2,330.2,-0.8,1.8,2470.465,13.28,0.039,110.7
2021-06-12T03:52:03,42.805,6.029,0.022,-0.005,0.003,104.0,104.0,101.0,13.4,1505.2,328.3,-0.7,1.8,2470.502,13.28,0.022,102.8
2021-06-12T03:55:03,42.805,6.029,0.033,0.005,0.016,103.0,104.0,101.0,13.4,1505.2,328.9,-0.7,1.8,2470.525,13.28,0.033,81.4
2021-06-12T03:58:03,42.805,6.029,0.02,-0.012,-0.02,102.0,103.0,102.0,13.4,1505.2,325.7,-0.8,1.8,2470.471,13.28,0.023,121.0
2021-06-12T04:04:03,42.805,6.029,0.011,-0.02,0.026,102.0,104.0,102.0,13.4,1505.2,327.9,-0.8,1.8,2470.486,13.28,0.022,151.2
2021-06-12T04:07:03,42.805,6.029,0.026,-0.006,0.047,104.0,104.0,101.0,13.4,1505.2,327.4,-0.8,1.8,2470.499,13.28,0.026,103.0
2021-06-12T04:10:03,42.805,6.029,0.035,-0.002,-0.023,103.0,102.0,102.0,13.4,1505.2,326.6,-0.7,1.8,2470.469,13.28,0.035,93.3
2021-06-12T04:13:03,42.805,6.029,0.002,-0.006,0.002,103.0,103.0,101.0,13.4,1505.2,325.9,-0.8,1.8,2470.481,13.28,0.006,161.6
2021-06-12T04:16:03,42.805,6.029,0.014,-0.012,-0.022,104.0,104.0,102.0,13.4,1505.2,328.2,-0.8,1.8,2470.482,13.28,0.018,130.6
2021-06-12T04:19:03,42.805,6.029,0.007,-0.009,-0.01,102.0,103.0,102.0,13.3,1505.2,329.5,-0.7,1.8,2470.482,13.28,0.011,142.1
2021-06-12T04:22:03,42.805,6.029,0.036,-0.023,-0.02,103.0,107.0,102.0,13.4,1505.2,324.6,-0.7,1.8,2470.524,13.28,0.042,122.6
2021-06-12T04:25:03,42.805,6.029,0.022,-0.033,-0.01,104.0,103.0,101.0,13.4,1505.2,325.8,-0.8,1.8,2470.465,13.28,0.039,146.3
2021-06-12T04:28:03,42.805,6.029,0.014,0.0,0.021,104.0,103.0,101.0,13.4,1505.2,327.7,-0.8,1.8,2470.528,13.28,0.014,90.0
2021-06-12T04:31:03,42.805,6.029,0.028,-0.01,0.041,102.0,102.0,102.0,13.4,1505.2,329.0,-0.7,1.8,2470.513,13.28,0.029,109.6
2021-06-12T04:34:03,42.805,6.029,0.02,-0.005,0.017,102.0,105.0,100.0,13.4,1505.2,325.7,-0.7,1.8,2470.519,13.28,0.02,104.0
2021-06-12T04:37:03,42.805,6.029,0.027,-0.017,-0.005,103.0,103.0,101.0,13.4,1505.2,326.4,-0.8,1.8,2470.48,13.28,0.031,122.2
2021-06-12T04:40:03,42.805,6.029,-0.014,-0.011,0.009,103.0,103.0,102.0,13.4,1505.2,325.9,-0.8,1.8,2470.521,13.28,0.017,231.8
2021-06-12T04:43:03,42.805,6.029,0.017,-0.003,-0.004,102.0,103.0,101.0,13.4,1505.2,327.7,-0.8,1.8,2470.5,13.28,0.017,100.0
2021-06-12T04:46:03,42.805,6.029,0.017,-0.022,0.013,103.0,103.0,102.0,13.4,1505.2,326.4,-0.8,1.8,2470.473,13.28,0.027,142.3
2021-06-12T04:49:03,42.805,6.029,0.011,-0.004,0.015,103.0,104.0,101.0,13.4,1505.2,326.3,-0.8,1.8,2470.546,13.28,0.011,110.0
2021-06-12T04:52:03,42.805,6.029,0.007,-0.001,-0.018,103.0,104.0,102.0,13.4,1505.2,324.9,-0.7,1.8,2470.522,13.28,0.007,98.1
2021-06-12T04:55:03,42.805,6.029,0.021,-0.013,0.019,104.0,104.0,102.0,13.4,1505.2,329.4,-0.7,1.9,2470.464,13.28,0.024,121.8
2021-06-12T04:58:03,42.805,6.029,0.023,0.024,0.017,105.0,102.0,101.0,13.4,1505.2,326.8,-0.8,1.8,2470.511,13.28,0.033,43.8
2021-06-12T05:04:03,42.805,6.029,0.028,-0.008,0.024,104.0,104.0,101.0,13.3,1505.2,324.9,-0.8,1.8,2470.545,13.28,0.029,105.9
2021-06-12T05:07:03,42.805,6.029,0.041,-0.015,0.016,102.0,105.0,101.0,13.4,1505.2,326.4,-0.7,1.8,2470.54,13.28,0.043,110.1
2021-06-12T05:10:03,42.805,6.029,0.025,-0.002,0.003,103.0,104.0,102.0,13.4,1505.2,327.5,-0.7,1.8,2470.518,13.28,0.025,94.6
2021-06-12T05:13:03,42.805,6.029,0.037,0.002,0.009,105.0,102.0,102.0,13.4,1505.2,326.9,-0.8,1.8,2470.533,13.28,0.037,86.9
2021-06-12T05:16:03,42.805,6.029,0.011,-0.015,-0.016,103.0,103.0,102.0,13.4,1505.2,330.0,-0.8,1.8,2470.531,13.28,0.018,143.7
2021-06-12T05:19:03,42.805,6.029,0.02,0.009,-0.003,104.0,103.0,102.0,13.4,1505.2,324.7,-0.8,1.8,2470.51,13.28,0.021,65.8
2021-06-12T05:22:03,42.805,6.029,0.033,-0.002,0.018,103.0,104.0,102.0,13.4,1505.2,326.7,-0.8,1.8,2470.494,13.28,0.033,93.5
2021-06-12T05:25:03,42.805,6.029,0.024,-0.012,-0.014,105.0,103.0,101.0,13.3,1505.2,326.2,-0.7,1.8,2470.533,13.28,0.026,116.6
2021-06-12T05:28:03,42.805,6.029,0.036,-0.033,0.014,104.0,102.0,102.0,13.4,1505.2,327.7,-0.8,1.8,2470.5,13.28,0.048,132.5
2021-06-12T05:31:03,42.805,6.029,0.0,0.002,0.013,104.0,105.0,102.0,13.4,1505.2,328.3,-0.8,1.8,2470.543,13.28,0.002,0.0
2021-06-12T05:34:03,42.805,6.029,0.021,-0.017,0.003,103.0,103.0,102.0,13.4,1505.2,329.0,-0.8,1.8,2470.534,13.28,0.027,129.0
2021-06-12T05:37:03,42.805,6.029,0.03,-0.009,0.009,105.0,104.0,101.0,13.4,1505.2,326.0,-0.7,1.8,2470.497,13.28,0.031,106.7
2021-06-12T05:40:03,42.805,6.029,0.032,-0.024,-0.005,103.0,103.0,102.0,13.4,1505.2,326.9,-0.7,1.8,2470.527,13.28,0.04,126.9
2021-06-12T05:43:03,42.805,6.029,0.008,-0.021,0.0,103.0,103.0,102.0,13.4,1505.2,327.2,-0.8,1.8,2470.536,13.28,0.022,159.1
2021-06-12T05:46:03,42.805,6.029,0.015,-0.018,-0.005,104.0,105.0,100.0,13.4,1505.2,329.8,-0.8,1.8,2470.508,13.28,0.023,140.2
2021-06-12T05:49:03,42.805,6.029,0.021,-0.01,0.002,103.0,104.0,101.0,13.4,1505.2,324.6,-0.8,1.8,2470.53,13.28,0.023,115.5
2021-06-12T05:52:03,42.805,6.029,0.022,-0.014,-0.003,104.0,104.0,101.0,13.4,1505.2,328.6,-0.7,1.8,2470.525,13.28,0.026,122.5
2021-06-12T05:55:03,42.805,6.029,0.01,-0.008,-0.003,104.0,104.0,101.0,13.3,1505.2,328.3,-0.7,1.8,2470.532,13.28,0.012,128.7
2021-06-12T05:58:03,42.805,6.029,0.025,-0.02,-0.004,104.0,103.0,101.0,13.3,1505.2,325.9,-0.8,1.8,2470.541,13.28,0.032,128.7
2021-06-12T06:04:03,42.805,6.029,0.021,-0.026,-0.01,104.0,104.0,102.0,13.4,1505.2,326.3,-0.8,1.8,2470.579,13.28,0.033,141.1
2021-06-12T06:07:03,42.805,6.029,0.024,-0.02,-0.017,104.0,104.0,102.0,13.4,1505.2,326.3,-0.8,1.8,2470.535,13.28,0.031,129.8
2021-06-12T06:10:03,42.805,6.029,0.019,-0.009,0.004,103.0,104.0,101.0,13.4,1505.2,326.0,-0.8,1.8,2470.516,13.28,0.021,115.3
2021-06-12T06:13:03,42.805,6.029,0.026,-0.011,-0.002,102.0,104.0,101.0,13.3,1505.2,324.8,-0.8,1.8,2470.555,13.28,0.028,112.9
2021-06-12T06:16:03,42.805,6.029,0.028,-0.006,0.01,103.0,104.0,102.0,13.4,1505.2,329.5,-0.8,1.8,2470.498,13.28,0.028,102.1
2021-06-12T06:19:03,42.805,6.029,0.021,-0.004,-0.006,103.0,105.0,101.0,13.4,1505.2,324.6,-0.7,1.8,2470.573,13.28,0.021,100.8
2021-06-12T06:22:03,42.805,6.029,0.014,-0.02,-0.012,103.0,105.0,102.0,13.3,1505.2,325.6,-0.7,1.8,2470.575,13.28,0.024,145.0
2021-06-12T06:25:03,42.805,6.029,0.0,-0.019,0.0,103.0,104.0,100.0,13.3,1505.2,328.3,-0.8,1.8,2470.581,13.28,0.019,180.0
2021-06-12T06:28:03,42.805,6.029,0.017,-0.011,-0.015,102.0,104.0,102.0,13.4,1505.2,328.1,-0.7,1.8,2470.537,13.28,0.02,122.9
2021-06-12T06:31:03,42.805,6.029,0.015,-0.008,0.007,103.0,103.0,101.0,13.4,1505.2,326.4,-0.8,1.8,2470.541,13.28,0.017,118.1
2021-06-12T06:34:03,42.805,6.029,0.012,-0.02,0.03,103.0,103.0,102.0,13.4,1505.2,328.2,-0.7,1.8,2470.574,13.28,0.023,149.0
2021-06-12T06:37:03,42.805,6.029,0.018,0.0,-0.003,102.0,104.0,101.0,13.4,1505.2,327.9,-0.8,1.8,2470.556,13.28,0.018,90.0
2021-06-12T06:40:03,42.805,6.029,0.024,-0.008,-0.019,103.0,103.0,102.0,13.3,1505.2,326.0,-0.7,1.8,2470.56,13.28,0.025,108.4
2021-06-12T06:43:03,42.805,6.029,0.007,-0.02,0.0,102.0,104.0,101.0,13.3,1505.2,326.8,-0.7,1.8,2470.574,13.28,0.021,160.7
2021-06-12T06:46:03,42.805,6.029,0.01,-0.021,-0.02,103.0,103.0,101.0,13.3,1505.2,325.6,-0.7,1.8,2470.574,13.28,0.023,154.5
2021-06-12T06:49:03,42.805,6.029,0.014,-0.013,0.001,101.0,103.0,102.0,13.4,1505.2,326.5,-0.8,1.8,2470.563,13.28,0.019,132.9
2021-06-12T06:52:03,42.805,6.029,0.012,-0.003,-0.025,102.0,104.0,101.0,13.4,1505.2,329.4,-0.7,1.8,2470.587,13.28,0.012,104.0
2021-06-12T06:55:03,42.805,6.029,0.009,-0.015,-0.005,104.0,104.0,101.0,13.4,1505.2,326.5,-0.8,1.8,2470.573,13.28,0.017,149.0
2021-06-12T06:58:03,42.805,6.029,0.014,-0.01,0.013,102.0,104.0,101.0,13.4,1505.2,329.2,-0.7,1.8,2470.582,13.28,0.017,125.5
2021-06-12T07:04:03,42.805,6.029,0.001,-0.006,0.005,103.0,103.0,101.0,13.4,1505.2,327.4,-0.8,1.8,2470.627,13.28,0.006,170.5
2021-06-12T07:07:03,42.805,6.029,0.029,-0.02,-0.027,103.0,104.0,102.0,13.3,1505.2,329.0,-0.7,1.8,2470.595,13.28,0.035,124.6
2021-06-12T07:10:03,42.805,6.029,0.003,-0.013,0.011,104.0,104.0,102.0,13.4,1505.2,326.8,-0.8,1.8,2470.593,13.28,0.013,167.0
2021-06-12T07:13:03,42.805,6.029,0.018,-0.015,0.014,103.0,103.0,101.0,13.4,1505.2,327.0,-0.8,1.8,2470.58,13.28,0.023,129.8
2021-06-12T07:16:03,42.805,6.029,0.03,-0.027,-0.013,103.0,104.0,102.0,13.3,1505.2,325.3,-0.8,1.8,2470.625,13.28,0.04,132.0
2021-06-12T07:19:03,42.805,6.029,0.037,-0.011,-0.005,106.0,103.0,102.0,13.4,1505.2,324.7,-0.8,1.8,2470.633,13.28,0.038,106.6
2021-06-12T07:22:03,42.805,6.029,0.01,-0.01,-0.043,105.0,102.0,102.0,13.4,1505.2,325.5,-0.7,1.8,2470.545,13.28,0.014,135.0
2021-06-12T07:25:03,42.805,6.029,0.008,-0.005,0.013,103.0,103.0,102.0,13.4,1505.2,325.8,-0.7,1.8,2470.6,13.28,0.009,122.0
2021-06-12T07:28:03,42.805,6.029,0.011,-0.01,0.0,104.0,105.0,101.0,13.4,1505.2,329.9,-0.7,1.8,2470.598,13.28,0.014,132.3
2021-06-12T07:31:03,42.805,6.029,0.007,0.004,-0.015,103.0,104.0,101.0,13.4,1505.2,329.2,-0.7,1.8,2470.625,13.28,0.008,60.3
2021-06-12T07:34:03,42.805,6.029,-0.003,-0.017,-0.025,104.0,104.0,102.0,13.4,1505.2,326.1,-0.8,1.8,2470.589,13.28,0.017,190.0
2021-06-12T07:37:03,42.805,6.029,0.012,-0.01,0.017,103.0,104.0,102.0,13.4,1505.2,328.3,-0.8,1.9,2470.578,13.28,0.015,129.8
2021-06-12T07:40:03,42.805,6.029,0.021,-0.013,-0.014,103.0,104.0,102.0,13.3,1505.2,330.0,-0.8,1.9,2470.597,13.28,0.024,121.8
2021-06-12T07:43:03,42.805,6.029,0.014,-0.026,-0.01,104.0,104.0,102.0,13.4,1505.2,328.1,-0.7,1.8,2470.602,13.28,0.029,151.7
2021-06-12T07:46:03,42.805,6.029,-0.008,-0.007,-0.014,104.0,104.0,101.0,13.3,1505.2,326.1,-0.7,1.8,2470.594,13.28,0.01,228.8
2021-06-12T07:49:03,42.805,6.029,0.0,-0.02,-0.002,103.0,104.0,102.0,13.4,1505.2,326.8,-0.7,1.8,2470.611,13.28,0.02,180.0
2021-06-12T07:52:03,42.805,6.029,0.026,-0.006,0.021,102.0,104.0,102.0,13.4,1505.2,326.9,-0.7,1.8,2470.629,13.28,0.026,103.0
2021-06-12T07:55:03,42.805,6.029,0.003,0.002,-0.031,104.0,103.0,102.0,13.4,1505.2,328.2,-0.8,1.8,2470.56,13.28,0.003,56.3
2021-06-12T07:58:03,42.805,6.029,0.033,-0.014,-0.011,104.0,102.0,102.0,13.4,1505.2,329.8,-0.7,1.8,2470.556,13.28,0.035,113.0
2021-06-12T08:04:03,42.805,6.029,0.043,-0.024,0.009,102.0,104.0,102.0,13.3,1505.2,328.6,-0.8,1.8,2470.606,13.28,0.049,119.2
2021-06-12T08:07:03,42.805,6.029,0.029,-0.029,-0.007,103.0,103.0,101.0,13.4,1505.2,328.0,-0.7,1.8,2470.635,13.28,0.041,135.0
2021-06-12T08:10:03,42.805,6.029,0.025,-0.025,-0.001,103.0,103.0,101.0,13.3,1505.2,329.9,-0.8,1.8,2470.576,13.28,0.035,135.0
2021-06-12T08:13:03,42.805,6.029,0.016,0.003,-0.024,103.0,103.0,102.0,13.3,1505.2,326.7,-0.8,1.8,2470.6,13.28,0.016,79.4
2021-06-12T08:16:03,42.805,6.029,0.011,-0.008,0.001,104.0,103.0,101.0,13.3,1505.2,328.3,-0.7,1.8,2470.598,13.28,0.013,126.0
2021-06-12T08:19:03,42.805,6.029,0.014,-0.021,-0.02,102.0,104.0,101.0,13.4,1505.2,330.0,-0.7,1.9,2470.581,13.28,0.025,146.3
2021-06-12T08:22:03,42.805,6.029,0.019,-0.006,0.032,108.0,103.0,101.0,13.3,1505.2,326.6,-0.8,1.9,2470.587,13.28,0.019,107.5
2021-06-12T08:25:03,42.805,6.029,0.008,-0.009,-0.01,104.0,103.0,101.0,13.4,1505.2,330.1,-0.7,1.8,2470.581,13.28,0.012,138.4
2021-06-12T08:28:03,42.805,6.029,0.012,-0.012,0.021,103.0,103.0,101.0,13.4,1505.2,325.3,-0.7,1.8,2470.613,13.28,0.016,135.0
2021-06-12T08:31:03,42.805,6.029,0.026,0.011,-0.01,103.0,106.0,102.0,13.3,1505.2,326.7,-0.7,1.8,2470.608,13.28,0.028,67.1
2021-06-12T08:34:03,42.805,6.029,0.007,-0.009,-0.012,105.0,104.0,101.0,13.4,1505.2,327.1,-0.8,1.8,2470.603,13.28,0.011,142.1
2021-06-12T08:37:03,42.805,6.029,0.013,-0.017,-0.006,104.0,105.0,101.0,13.4,1505.2,325.7,-0.7,1.8,2470.61,13.28,0.021,142.6
2021-06-12T08:40:03,42.805,6.029,0.014,-0.015,0.004,103.0,103.0,102.0,13.4,1505.2,326.3,-0.8,1.8,2470.599,13.28,0.02,137.0
2021-06-12T08:43:03,42.805,6.029,0.023,-0.023,0.008,103.0,105.0,100.0,13.4,1505.2,329.6,-0.8,1.8,2470.623,13.28,0.032,135.0
2021-06-12T08:46:03,42.805,6.029,-0.007,-0.011,0.002,104.0,103.0,101.0,13.4,1505.2,328.1,-0.8,1.8,2470.574,13.28,0.013,212.5
2021-06-12T08:49:03,42.805,6.029,0.01,-0.032,-0.004,103.0,104.0,101.0,13.4,1505.2,329.8,-0.7,1.8,2470.579,13.28,0.033,162.6
2021-06-12T08:52:03,42.805,6.029,0.006,-0.014,-0.009,103.0,103.0,101.0,13.4,1505.2,328.0,-0.7,1.8,2470.611,13.28,0.015,156.8
2021-06-12T08:55:03,42.805,6.029,0.022,-0.032,-0.044,103.0,103.0,101.0,13.3,1505.2,325.3,-0.7,1.8,2470.545,13.28,0.038,145.5
2021-06-12T08:58:03,42.805,6.029,0.004,-0.013,-0.008,104.0,102.0,101.0,13.4,1505.2,326.3,-0.8,1.8,2470.561,13.28,0.013,162.9
2021-06-12T09:04:02,42.805,6.029,0.027,-0.017,0.015,103.0,104.0,100.0,13.4,1505.2,326.3,-0.7,1.8,2470.616,13.28,0.031,122.2
2021-06-12T09:07:03,42.805,6.029,0.018,-0.011,0.005,103.0,103.0,102.0,13.4,1505.2,327.9,-0.7,1.9,2470.578,13.28,0.021,121.4
2021-06-12T09:10:03,42.805,6.029,0.015,-0.023,0.006,102.0,103.0,102.0,13.3,1505.2,328.3,-0.8,1.8,2470.566,13.28,0.027,146.9
2021-06-12T09:13:02,42.805,6.029,0.024,-0.022,0.031,104.0,102.0,101.0,13.3,1505.2,327.9,-0.7,1.8,2470.603,13.28,0.032,132.5
2021-06-12T09:16:03,42.805,6.029,0.013,-0.01,0.014,104.0,105.0,102.0,13.4,1505.2,327.0,-0.8,1.8,2470.587,13.28,0.016,127.6
2021-06-12T09:19:02,42.805,6.029,0.011,-0.015,0.0,105.0,105.0,101.0,13.4,1505.2,330.1,-0.8,1.8,2470.578,13.28,0.018,143.7
2021-06-12T09:22:02,42.805,6.029,0.026,0.005,0.0,104.0,103.0,101.0,13.4,1505.2,327.9,-0.8,1.8,2470.564,13.28,0.026,79.1
2021-06-12T09:25:04,42.805,6.029,0.043,-0.001,0.013,103.0,103.0,102.0,13.4,1505.2,328.9,-0.8,1.8,2470.608,13.28,0.043,91.3
2021-06-12T09:28:03,42.805,6.029,0.01,-0.013,-0.012,105.0,103.0,102.0,13.3,1505.2,329.9,-0.7,1.8,2470.537,13.28,0.016,142.4
2021-06-12T09:31:02,42.805,6.029,0.013,-0.014,-0.024,104.0,103.0,101.0,13.4,1505.2,329.4,-0.7,1.8,2470.587,13.28,0.019,137.1
2021-06-12T09:34:03,42.805,6.029,0.008,-0.022,-0.006,104.0,104.0,102.0,13.3,1505.2,325.9,-0.8,1.8,2470.55,13.28,0.023,160.0
2021-06-12T09:37:02,42.805,6.029,0.004,-0.01,0.007,105.0,103.0,102.0,13.4,1505.2,325.1,-0.8,1.8,2470.578,13.28,0.01,158.2
2021-06-12T09:40:03,42.805,6.029,0.007,-0.008,-0.009,104.0,104.0,102.0,13.3,1505.2,328.2,-0.7,1.8,2470.556,13.28,0.01,138.8
2021-06-12T09:43:02,42.805,6.029,0.04,-0.025,0.026,103.0,103.0,103.0,13.3,1505.2,328.1,-0.8,1.8,2470.577,13.28,0.047,122.0
2021-06-12T09:46:03,42.805,6.029,0.023,-0.011,-0.007,104.0,104.0,101.0,13.4,1505.2,325.6,-0.7,1.8,2470.512,13.28,0.025,115.6
2021-06-12T09:49:02,42.805,6.029,0.025,-0.005,0.011,103.0,103.0,102.0,13.4,1505.2,326.0,-0.7,1.8,2470.569,13.28,0.025,101.3
2021-06-12T09:52:02,42.805,6.029,0.004,-0.008,-0.007,103.0,104.0,102.0,13.4,1505.2,324.2,-0.7,1.8,2470.545,13.28,0.008,153.4
2021-06-12T09:55:02,42.805,6.029,0.029,-0.027,0.006,104.0,103.0,102.0,13.3,1505.2,327.5,-0.7,1.8,2470.55,13.28,0.039,133.0
2021-06-12T09:58:03,42.805,6.029,0.011,-0.02,0.001,103.0,104.0,101.0,13.3,1505.2,329.9,-0.8,1.8,2470.516,13.28,0.022,151.2